Location: Newark
(11.2914°S, 14.4718°E)
Time: 05:04:04
(UTC+00:00)

Vanguard 2 - Pass Details

Date: 26 September 2019
Orbit: 554 x 2937 km, 32.9° (Epoch: 16 October)

Event Time Altitude Azimuth Distance (km) Brightness Sun altitude
Rises 20:01:29 0° 243° (WSW) 5,394 12.6 -45.4°
Reaches altitude 10° 20:04:36 10° 246° (WSW) 4,660 12.0 -46.2°
Enters shadow 20:18:12 67° 316° (NW) 2,904 10.2 -49.4°
